星链-33931 (STARLINK-33931)

导读

STARLINK-33931是美国太空探索技术公司星链(Starlink)项目的低轨互联网卫星,于2025年5月14日由美国发射升空。该卫星是星链星座扩容的组成部分,旨在为全球范围提供高速低延迟卫星互联网服务,尤其是覆盖地面网络难以通达的偏远区域。作为星链批量部署卫星之一,延续了该星座小卫星标准化设计,助力完善全球卫星互联网覆盖布局。

基本信息
目录编号:
64006
目录名称:
STARLINK-33931
国际标识:
2025-101N
轨道中心:
EARTH
卫星名称:
星链-33931
卫星全名:
星链-33931 (STARLINK-33931)
卫星状态:
在轨 (已飞行479 天)
发射日期:
2025-05-14 UTC
国别 :
美国 (US)
星等 :
--
轨道信息
数据来源 国际轨道数据
星历时间: 2026-09-04T21:11:08+0800
22小时前
查看轨道信息
半长轴: 6861.246km
偏心率: 0.0001313
轨道倾角: 43.002°
近地点辐角 267.088°
升交点赤经 67.498°
平近点角 92.982°
近地点: 482.208km
远地点: 484.01km
周期: 94.268分钟
每日圈数: 15.2756
详细信息
固有亮度:
5
最大亮度:
2.5
卫星平台:
Starlink V1.0
覆盖范围:
全球
运营商:
太空探索技术公司
运营商所在国:
美国
制造商(研发单位):
太空探索技术公司
制造商所在国:
美国
使用方式:
暂无
卫星简介
Starlink 计划是 SpaceX 推出的全球卫星互联网项目,通过发射低轨道卫星,为全球尤其是偏远地区提供高速、低延迟的互联网服务。自 2019 年起,Starlink 已部署数千颗卫星,旨在缩小全球数字鸿沟,推动互联网普及。该项目还为军事、航空等行业提供通信支持,带来广泛经济效益。
2D轨道图
3D轨道图
轨道高度分析图
轨道倾角分析图
轨道综合分析图
查看轨道综合分析图
交会数据列表
事件ID 空间交会对象 最接近时刻(TCA) 交会距离 交会风险概率(CRP) 交会风险指数(CRI) 操作
CDM_260907-180906-400606-746321
2026-09-07T
18:09:44+0000
1.084 km
极远距离
1.567208E-5 中风险 0.59
CDM_260905-214506-400606-840522
2026-09-05T
21:45:07+0000
1.342 km
极远距离
8.247609E-6 低风险 0.53
CDM_260905-184206-400606-659321
2026-09-05T
18:42:23+0000
1.162 km
极远距离
7.6193E-6 低风险 0.53
CDM_260906-001106-400606-659321
2026-09-06T
00:11:56+0000
1.355 km
极远距离
4.54517E-6 低风险 0.48
CDM_260905-174906-400606-729722
2026-09-05T
17:49:20+0000
2.277 km
极远距离
1.833326E-6 低风险 0.4
CDM_260905-171106-392906-400621
2026-09-05T
17:11:30+0000
2.986 km
极远距离
1.144008E-6 低风险 0.36
CDM_260905-201606-400606-659321
2026-09-05T
20:16:33+0000
2.640 km
极远距离
8.674337E-7 极低风险 0.34